THORAD AGENA D DEB, 5690

Orbit data source: Space-Track

THORAD AGENA D DEB, 5690 is space debris in SSO originally from a launch on Wed, 08 Apr 1970 UTC launched from the Air Force Western Test Range (AFWTR). Debris objects in space refer to the collection of defunct objects orbiting the Earth. Examples of debris include non-operational satellites, rocket bodies, and fragments generated from explosions, collisions, or faulty payload assembly.

Loading next visibility...
Identifier
5690, 1970-025LV
Orbit
SSO
Country
Flag of USUS
Related business
Manufacturer
Unknown
Mission
Spacecraft
Bus & Motor
Unknown
Mass
Unknown
Launch date (UTC)
1970-04-08 (56 years ago)
Launch vehicle
Unknown
Launch site
Air Force Western Test Range (AFWTR)
Object type
Payload
Rocket body
Debris
Shape & HBR
Unknown shape, 0.1 m
Radar Cross Section
Medium (>0.1 m² and <1 m²)

Expand to show TLE details & history
Last TLE update: 1 day ago

TLE from 1 day ago
0 THORAD AGENA D DEB
1 05690U 70025LV  26256.31846347  .00000034  00000-0  12444-3 0  9996
2 05690 100.1914 273.9563 0048506 221.6758 151.5346 13.51641233778294
Epoch: 2026-09-13T07:38Z
TLE epoch observation values (Epoch: 2026-09-13T07:38:35.243Z)
Latitude
13.2243°
Longitude
164.58579°
Altitude
1,100.042 km
Speed
7.288 km/s
True Right ascension
18h 06m 11s
True Declination
13° 09' 05"
Sunlit
Object was in daylight at epoch
Visualization orbit readout
Latitude
Unknown
Longitude
Unknown
Altitude
Unknown
Speed
Unknown
Apparent Right ascension
Unknown
Apparent Declination
Unknown
Sunlit
N/A
Visualization observer readout
Local Sidereal Time
00:41:54
Azimuth
Unknown
Elevation
Unknown
Doppler factor
Unknown
Orbital elements
Apogee altitude
1,099.648 km
Perigee altitude
1,027.455 km
Semi-major axis
7,441.688 km
Eccentricity
0.00485
Inclination
100.1914°
RAAN
273.9563°
Arg. of periapsis
221.6758°
True anomaly
151.79812°
Mean anomaly
151.5346°
Eccentric anomaly
151.6665°
Mean motion
3.38093 °/min
Orbital period
106.48 mins
BSTAR
0.00012444
Loading maneuver chart data...
Computing Atmospheric mass density...

Documentation

Showing up to 5 results
|